Regional Weather Roundup
Issued by NWS San Diego, CA

Home | Current Version | Previous Version | Text Only | Print | Product List | Glossary On
Versions: 1 2 3 4 5 6 7 8 9 10 11 12 13 14 15 16 17 18 19 20 21 22 23 24 25 26 27 28 29 30 31 32 33 34 35 36 37 38 39 40 41 42 43 44 45 46 47 48 49 50
000
ASUS46 KSGX 220810
RWRSGX

SAN DIEGO HOURLY WEATHER ROUNDUP
NATIONAL WEATHER SERVICE SAN DIEGO CA
100 AM PDT MON SEP 22 2014

NOTE: "FAIR" INDICATES FEW OR NO CLOUDS BELOW 12,000 FEET WITH NO
SIGNIFICANT WEATHER AND/OR OBSTRUCTIONS TO VISIBILITY.

CAZ042-043-060-061-PZZ750-775-220900-

GREATER SAN DIEGO AREA

CITY           SKY/WX    TMP DP  RH WIND       PRES   REMARKS
LINDBERGH FLD  PTCLDY    70  62  76 CALM      29.97S
POINT LOMA       N/A     66  61  85 NW8         N/A
NATIONAL CITY    N/A     69  64  83 N2        29.96S
CHULA VISTA      N/A     67  64  89 CALM      29.90R
IMPERIAL BEACH CLEAR     64  61  90 CALM      29.96S
BROWN FIELD    CLEAR     65  61  87 CALM      29.96S
MIRAMAR MCAS   MOCLDY    67  61  81 N5        29.96S
MONTGOMERY FLD CLEAR     68  63  84 N5        29.97R

$$

NORTH SAN DIEGO COUNTY

CITY           SKY/WX    TMP DP  RH WIND       PRES   REMARKS
CAMP PENDLETON PTCLDY    63  57  81 NE5       29.96R
OCEANSIDE AP   CLEAR    N/A N/A N/A CALM      29.95S
OCEANSIDE HBR    N/A     65  62  89 NE2       29.98S
VISTA            N/A     64  60  86 CALM      29.94S
CARLSBAD       CLEAR     67  63  87 SE3       29.95S
DEL MAR          N/A     67  65  91 CALM      29.98S
FALLBROOK        N/A     64  64 100 CALM      29.96S
ESCONDIDO        N/A     65  61  87 CALM      29.98S
SAN MARCOS       N/A     65  61  86 CALM      29.94S
POWAY            N/A     62  58  87 CALM      29.96F

$$

EAST SAN DIEGO COUNTY

CITY           SKY/WX    TMP DP  RH WIND       PRES   REMARKS
RAMONA         CLEAR     57  54  89 CALM      29.98S
SANTEE LAKES     N/A     63  61  91 CALM      29.97S
LA MESA          N/A     66  64  91 CALM      29.90S
JAMUL            N/A     62  59  91 CALM      29.94S
MT. LAGUNA OBS   N/A     61  41  48 E6        29.77R
CAMPO            N/A     55  45  68 NE6       30.00R

$$

ORANGE COUNTY AND THE LOS ANGELES BASIN

CITY           SKY/WX    TMP DP  RH WIND       PRES   REMARKS
JOHN WAYNE AP  CLEAR     71  61  70 CALM      29.95S
LAGUNA BEACH     N/A    N/A  18   0 CALM      29.91S
LAKE FOREST FR   N/A     63  56  78 CALM      29.86F
SANTA ANA        N/A     65  60  83 CALM      29.91S
HUNTINGTON BCH   N/A     62  60  93 CALM      29.98S
LOS ALAMITOS   FAIR      64  62  93 CALM      29.96S
FULLERTON      CLEAR     66  60  81 CALM      29.95S
LONG BEACH     CLEAR     66  63  90 SE3       29.96S
L.A. AP        CLEAR     67  63  87 S3        29.96R
L.A. DOWNTOWN  CLEAR     66  61  84 CALM      29.95S

$$

THE INLAND EMPIRE

CITY           SKY/WX    TMP DP  RH WIND       PRES   REMARKS
CORONA         CLEAR     59  56  89 CALM      29.98R
CHINO          CLEAR     63  59  87 CALM      29.98S
ONTARIO        CLEAR     66  58  75 CALM      29.97S
RIVERSIDE AP   CLEAR     65  59  81 CALM      29.98R
RIV CYN CREST    N/A     67  66  97 CALM      29.95S
MORENO VALLEY    N/A     64  60  87 CALM      29.18S
MARCH ARB      CLEAR     60  55  82 NW3       30.00R
HORSETHIEF CYN   N/A     61  53  75 SW3       29.99S
PERRIS           N/A     66  59  79 CALM      29.96R
MENIFEE          N/A     66  60  81 CALM      30.03S
HEMET EAST       N/A     64  49  57 CALM      29.96S
FRENCH VALLEY  FAIR      64  57  77 CALM      29.99S
TEMECULA         N/A     65  60  85 CALM      29.96R

$$

SAN BERNARDINO AND RIVERSIDE COUNTY MOUNTAINS

CITY           SKY/WX    TMP DP  RH WIND       PRES   REMARKS
BIG BEAR AP    CLEAR     41  32  70 CALM      30.27S
PINE COVE        N/A     59  35  40 CALM      29.87R

$$

SOUTHERN DESERT INCLUDING THE COACHELLA VALLEY

CITY           SKY/WX    TMP DP  RH WIND       PRES   REMARKS
PALM SPRINGS   CLEAR     81  55  40 CALM      29.90R
THOUSAND PALMS   N/A     82  52  34 W7        29.84S
PALM DESERT      N/A     79  58  48 CALM        N/A
THERMAL        CLEAR     81  55  40 N7        29.83R
BLYTHE         CLEAR     81  43  26 SE7       29.86S
IMPERIAL AP    CLEAR     82  51  34 SE5       29.84R
EL CENTRO NAS  CLEAR     80  50  34 SE5       29.84R
YUMA AZ        CLEAR     82  60  47 SE5       29.86R

$$

UPPER DESERT

CITY           SKY/WX    TMP DP  RH WIND       PRES   REMARKS
VICTORVILLE AP CLEAR     66  45  45 S7        30.05R
HESPERIA         N/A     63  47  57 W5        30.05R
APPLE VALLEY     N/A     65  44  44 CALM      30.12R
PALMDALE       CLEAR     66  40  38 S8        30.02S
LANCASTER      CLEAR     69  49  48 W6        30.01S
EDWARDS AFB    CLEAR     68  46  45 S8        29.99R
DAGGETT        CLEAR     74  42  31 W7        29.98R
29 PALMS N     CLEAR     74  40  29 N7        30.05R
NEEDLES        CLEAR     81  46  29 NW3       29.89R

$$

REGIONAL REPORTS

CITY           SKY/WX    TMP DP  RH WIND       PRES   REMARKS
SANTA BARBARA  CLEAR     63  58  83 CALM      29.94R
SANDBERG       CLEAR     66  48  52 N10G18    30.13S
MT. WILSON       N/A     61  21  21 E5          N/A
LAS VEGAS NV   CLEAR     82  42  24 SW7       29.94R
PHOENIX AZ     CLEAR     85  56  37 SE3       29.91R
TIJUANA        CLEAR     66  59  77 N5        29.99S

$$

OFFSHORE ISLANDS

CITY           SKY/WX    TMP DP  RH WIND       PRES   REMARKS
CATALINA ARPT  CLEAR     64  51  62 CALM      30.00S
SAN NICOLAS IS CLOUDY   N/A N/A N/A NW17      29.97R

$$

MARINE AND OFFSHORE BUOY REPORTS

STATION/POSITION SKY/WX   TEMP    WIND        PRES    SWELL
                          AIR SEA DIR/SP/G            HT/PER/DIR
                          (F)     (DEG/KT/KT) (MB)    (FT/S/D)
TANNER BANKS               68 71  330/ 14/ 17 1015.3R
S CLEMENTE BASIN           69 74  300/  8/ 12 1014.5F   3/270/13
SAN NICOLAS IS.               70                N/A     3/310/13
SO. S. ROSA ISLA           65 69  330/ 19/ 23 1014.0R   3/12
W. S. BARBARA CH           63 63  330/ 19/ 21 1013.6F   5/320/11
M. S. BARBARA CH           65 66  280/  2/  4 1013.9S
S. MONICA BASIN            68 72  320/ 10/ 12 1014.0R   3/270/ 5
S PEDRO CHANNEL               73                N/A     2/200/14
DANA POINT                    71                N/A     2/210/13
CMP PENDLETON NS              70                N/A     2/210/15
OCEANSIDE OFFSHR              72                N/A     2/220/13
TORREY PINES OTR              72                N/A     2/230/13
LA JOLLA 1                 70 72  340/  5/  8 1014.5R
MISSION BAY BUOY              72                N/A     2/260/12
SAN DIEGO BAY                 76              1014.9S

$$



USA.gov is the U.S. government's official web portal to all federal, state and local government web resources and services.